Tracking 30970 objects as of 3-Jul-2025
HD Live streaming from Space Station
objects crossing your sky now

STARLINK-5119

Track STARLINK-5119 now!
10-day predictions
STARLINK-5119 is classified as:


NORAD ID: 53986
Int'l Code: 2022-125Y
Perigee: 546.3 km
Apogee: 547.5 km
Inclination: 53.2 °
Period: 95.4 minutes
Semi major axis: 6917 km
RCS: Unknown
Launch date: October 5, 2022
Source: United States (US)
Launch site: AIR FORCE WESTERN TEST RANGE (AFWTR)
Your satellite tracking list
STARLINK-30401
Track 1 satellite(s)




NASA's NSSDC Master Catalog

Two Line Element Set (TLE):
1 53986U 22125Y   25183.87321576 -.00000017  00000-0  16993-4 0  9992
2 53986  53.2181 245.2729 0000896  76.4419 283.6673 15.08827806151881
Source of the keplerian elements: AFSPC